GW1686 Weather Reports


Display with metric or nautical units.
time (UTC)temp
F
wind
direction
speed
MPH
gust
MPH
rain 1hr
in
rain 24hr
in
rain mn
in
humidity
%
barometer
mb
20260508204542 86 335 2.0 5.0 0.00 0.00 0.00 72 1008.5
20260508203039 85 270 3.0 10.0 0.00 0.00 0.00 74 1008.7
20260508201541 86 248 3.0 8.0 0.00 0.00 0.00 73 1008.9
20260508200048 86 286 2.0 8.0 0.00 0.00 0.00 74 1008.9
20260508194544 86 290 2.0 9.0 0.00 0.00 0.00 74 1009.1
20260508193115 86 237 4.0 9.0 0.00 0.00 0.00 74 1009.1
20260508191538 86 0 1.0 7.0 0.00 0.00 0.00 75 1009.5
20260508190041 86 271 1.0 8.0 0.00 0.00 0.00 76 1010.0
20260508184541 86 335 2.0 8.0 0.00 0.00 0.00 76 1010.2
20260508183044 86 275 2.0 8.0 0.00 0.00 0.00 75 1010.3
20260508181538 86 206 3.0 9.0 0.00 0.00 0.00 75 1010.6
20260508180045 86 315 2.0 9.0 0.00 0.00 0.00 76 1010.9
20260508174554 86 232 2.0 9.0 0.00 0.00 0.00 76 1011.1
20260508173041 86 0 3.0 11.0 0.00 0.00 0.00 74 1011.1
20260508171607 86 350 2.0 8.0 0.00 0.00 0.00 75 1011.2
20260508170042 86 284 3.0 10.0 0.00 0.00 0.00 75 1011.3
20260508164542 86 250 2.0 8.0 0.00 0.00 0.00 74 1011.6
20260508163040 86 265 1.0 7.0 0.00 0.00 0.00 73 1011.8
20260508161545 86 280 2.0 8.0 0.00 0.00 0.00 74 1011.9
20260508160039 86 259 2.0 6.0 0.00 0.00 0.00 76 1012.1
20260508154539 85 286 3.0 7.0 0.00 0.00 0.00 77 1012.3
20260508153041 85 20 1.0 8.0 0.00 0.00 0.00 77 1012.4
20260508151547 84 332 1.0 6.0 0.00 0.00 0.00 80 1012.5
20260508150045 84 302 2.0 8.0 0.00 0.00 0.00 81 1012.5
20260508144545 84 318 1.0 6.0 0.00 0.00 0.00 82 1012.5
20260508143039 83 275 1.0 8.0 0.00 0.00 0.00 84 1012.4
20260508141542 81 271 1.0 6.0 0.00 0.00 0.00 85 1012.5
20260508140041 80 298 1.0 8.0 0.00 0.00 0.00 87 1012.4
20260508134537 80 0 1.0 4.0 0.00 0.00 0.00 88 1012.3
20260508133100 79 268 1.0 7.0 0.00 0.00 0.00 89 1012.3
20260508131541 79 360 0.0 4.0 0.00 0.00 0.00 90 1012.3
20260508130040 78 0 0.0 4.0 0.00 0.00 0.00 90 1012.1
20260508124538 78 0 1.0 4.0 0.00 0.00 0.00 91 1012.0
20260508123040 77 0 0.0 5.0 0.00 0.00 0.00 92 1011.9
20260508121601 77 360 1.0 4.0 0.00 0.00 0.00 92 1011.8
20260508120052 77 0 1.0 4.0 0.00 0.00 0.00 92 1011.6
20260508114541 77 360 1.0 3.0 0.00 0.00 0.00 92 1011.5
20260508113104 76 0 1.0 4.0 0.00 0.00 0.00 92 1011.2
20260508111540 76 360 1.0 4.0 0.00 0.00 0.00 92 1011.0
20260508110037 76 0 0.0 2.0 0.00 0.00 0.00 92 1010.8
20260508104542 76 0 0.0 2.0 0.00 0.00 0.00 91 1010.6
20260508103038 76 0 0.0 1.0 0.00 0.00 0.00 91 1010.3
20260508101545 76 0 0.0 4.0 0.00 0.00 0.00 91 1010.1
20260508100041 76 0 0.0 3.0 0.00 0.00 0.00 91 1010.1
20260508094537 76 360 0.0 3.0 0.00 0.00 0.00 90 1009.9
20260508093042 75 0 0.0 3.0 0.00 0.00 0.00 90 1009.7
20260508091605 76 0 0.0 3.0 0.00 0.00 0.00 90 1009.7
20260508090046 76 360 0.0 3.0 0.00 0.00 0.00 90 1009.6
20260508084540 76 0 0.0 3.0 0.00 0.00 0.00 90 1009.5
20260508083040 76 0 0.0 3.0 0.00 0.00 0.00 90 1009.5
20260508081537 76 0 0.0 3.0 0.00 0.00 0.00 89 1009.4
20260508080042 76 0 0.0 1.0 0.00 0.00 0.00 89 1009.4
20260508074544 76 0 0.0 2.0 0.00 0.00 0.00 89 1009.5
20260508073039 76 0 0.0 5.0 0.00 0.00 0.00 89 1009.6
20260508071540 76 360 0.0 4.0 0.00 0.00 0.00 88 1009.7
20260508070038 76 0 0.0 5.0 0.00 0.00 0.00 88 1010.1
20260508064546 76 360 2.0 4.0 0.00 0.00 0.00 88 1010.1
20260508063114 76 360 1.0 3.0 0.00 0.00 0.00 87 1010.3
20260508061541 76 0 0.0 4.0 0.00 0.00 0.00 87 1010.5
20260508060041 76 0 0.0 4.0 0.00 0.00 0.00 87 1010.6
20260508054543 76 360 1.0 3.0 0.00 0.00 0.00 87 1010.8
20260508053050 76 0 0.0 2.0 0.00 0.00 0.00 86 1010.8
20260508051606 76 0 0.0 4.0 0.00 0.00 0.00 87 1010.8
20260508050042 76 360 0.0 4.0 0.00 0.00 0.00 87 1010.9
20260508044540 76 0 0.0 3.0 0.00 0.00 0.00 87 1010.8
20260508043040 76 0 0.0 3.0 0.00 0.00 0.00 87 1010.9
20260508041546 76 0 0.0 2.0 0.00 0.00 0.00 87 1011.0
20260508040045 76 0 0.0 3.0 0.00 0.00 0.00 87 1011.1
20260508034539 76 0 0.0 4.0 0.00 0.00 0.00 87 1011.2
20260508033046 76 0 0.0 4.0 0.00 0.00 0.00 87 1011.1
20260508031539 76 0 0.0 3.0 0.00 0.00 0.00 87 1011.2
20260508030044 76 360 0.0 3.0 0.00 0.00 0.00 86 1011.1
20260508024543 76 0 0.0 3.0 0.00 0.00 0.00 86 1011.0
20260508023042 76 0 0.0 2.0 0.00 0.00 0.00 86 1011.0
20260508021545 77 0 0.0 4.0 0.00 0.00 0.00 86 1010.9
20260508020040 77 0 0.0 3.0 0.00 0.00 0.00 86 1010.8
20260508014539 77 0 0.0 2.0 0.00 0.00 0.00 86 1010.9
20260508013043 77 0 0.0 3.0 0.00 0.00 0.00 85 1010.8
20260508011546 77 360 0.0 2.0 0.00 0.00 0.00 86 1010.9
20260508010055 77 0 0.0 3.0 0.00 0.00 0.00 85 1010.8
20260508004542 77 0 0.0 3.0 0.00 0.00 0.00 84 1010.7
20260508003040 77 360 0.0 3.0 0.00 0.00 0.00 84 1010.7
20260508001541 78 360 0.0 5.0 0.00 0.00 0.00 83 1010.6
20260508000045 78 360 0.0 5.0 0.00 0.00 0.00 82 1010.5
20260507234537 79 360 1.0 5.0 0.00 0.00 0.00 80 1010.7
20260507233046 79 19 1.0 7.0 0.00 0.00 0.00 79 1010.6
20260507231541 80 204 1.0 7.0 0.00 0.00 0.00 78 1010.6
20260507230054 80 281 1.0 7.0 0.00 0.00 0.00 79 1010.4
20260507224537 80 244 2.0 9.0 0.00 0.00 0.00 76 1010.5
20260507223121 81 234 2.0 8.0 0.00 0.00 0.00 75 1010.3
20260507221540 82 283 2.0 6.0 0.00 0.00 0.00 72 1010.1
20260507220040 82 307 2.0 7.0 0.00 0.00 0.00 74 1010.3
20260507214544 82 249 2.0 6.0 0.00 0.00 0.00 75 1010.3
20260507213045 83 211 2.0 6.0 0.00 0.00 0.00 74 1010.3
20260507211542 83 273 2.0 8.0 0.00 0.00 0.00 72 1010.5
20260507210046 84 279 2.0 8.0 0.00 0.00 0.00 71 1010.7